RH
46 63 85 82 79 76 76 76 77 75 75 74 75 78 80 79 79 77 76 75 74 73 73 73 74 74 75 77 78 80 82 81 80 82 80 71 75 71 69 73 73 47 66
42 58 86 84 80 78 78 80 83 83 82 80 76 76 77 76 74 73 70 68 66 64 64 65 65 65 65 68 71 74 78 79 83 86 85 81 79 78 73 69 73 61 70
45 53 66 85 82 82 82 82 80 78 77 76 76 73 71 70 68 66 63 62 62 62 63 63 63 62 62 61 61 63 66 69 71 70 77 72 60 76 74 68 73 68 67
43 50 59 86 84 83 83 79 78 75 75 74 70 68 66 64 64 63 63 64 64 64 64 64 65 65 64 63 62 61 59 59 60 59 47 46 44 70 71 73 68 67 65
42 46 69 81 85 84 82 81 78 74 72 69 67 65 64 64 64 64 66 66 63 63 64 63 64 64 64 62 61 62 71 69 60 48 30 44 53 60 68 71 66 66 67
41 57 77 84 87 86 83 80 75 71 68 66 64 64 65 65 65 64 64 64 66 65 62 61 63 63 62 62 64 75 78 77 81 34 29 33 42 74 74 75 76 74 73
67 64 65 87 87 84 82 77 71 67 66 64 64 64 64 64 64 65 64 64 63 61 59 60 60 60 60 65 69 75 77 80 42 40 40 46 63 72 73 74 74 74 73
67 62 65 88 87 84 79 71 67 67 65 64 64 64 64 64 62 61 60 59 58 58 58 60 60 59 62 67 74 77 77 81 42 41 56 64 76 72 72 73 75 74 75
62 63 67 74 77 81 77 74 72 68 66 66 65 64 65 62 59 59 58 58 58 58 58 59 60 61 66 70 75 75 76 76 37 47 53 65 76 68 72 74 74 73 72
70 69 73 66 58 55 55 80 77 75 72 70 70 72 68 66 60 52 57 59 59 58 59 59 58 60 71 75 74 72 74 73 36 42 51 60 64 64 68 71 70 70 69
80 76 66 60 50 44 51 69 76 77 74 72 66 69 65 28 32 40 64 62 61 60 58 56 57 54 68 75 70 70 74 35 35 39 50 75 62 66 68 71 70 70 73
86 74 66 54 46 43 43 47 47 52 46 38 34 30 24 26 29 33 54 58 53 52 51 50 50 50 56 36 43 59 35 35 35 41 62 74 71 68 69 72 72 72 70
78 73 66 52 46 41 35 34 34 34 32 32 30 25 23 25 28 27 31 30 29 45 27 34 36 34 36 38 39 37 38 36 35 44 70 72 69 68 70 72 67 70 69
77 72 64 50 44 37 35 31 30 30 30 31 29 25 24 25 26 24 25 30 28 26 26 31 34 37 37 38 38 37 38 37 35 40 61 74 68 65 65 66 65 63 64
80 64 58 52 42 39 37 33 31 32 31 31 38 26 24 26 26 25 25 26 27 28 26 28 32 36 38 41 40 40 39 37 35 39 49 73 65 62 60 61 61 60 60
74 64 60 56 43 41 39 37 32 29 29 31 32 30 26 26 28 29 28 28 28 27 26 25 28 34 39 40 42 42 41 38 33 35 38 53 65 61 58 56 56 57 57
84 73 60 60 50 41 42 39 34 33 30 32 33 31 29 30 30 30 30 30 29 28 26 27 26 28 37 41 42 42 41 38 36 35 37 38 53 64 58 54 54 56 56
74 75 69 58 57 42 42 41 34 31 29 30 31 32 31 33 33 33 34 33 30 31 32 30 30 30 30 33 38 42 41 42 38 37 39 38 42 39 55 56 55 55 54
64 60 63 59 54 42 40 39 36 33 30 30 31 32 32 32 33 34 36 35 31 36 34 30 32 32 32 33 30 40 43 44 44 38 39 42 46 43 42 54 53 54 54
81 73 65 60 51 39 39 41 40 39 34 34 32 31 33 31 32 35 38 39 36 38 35 35 33 34 35 36 28 29 39 45 47 46 42 41 44 47 43 46 49 48 49
89 84 69 59 50 45 42 44 44 44 43 40 38 35 33 31 34 38 39 40 39 38 39 36 38 39 40 39 46 45 43 42 45 46 47 46 47 48 46 47 47 46 45
92 87 75 61 57 47 42 39 43 42 43 41 44 41 37 36 40 39 42 43 42 45 44 43 44 46 44 45 47 51 48 41 41 44 45 45 45 48 49 48 46 47 50
93 92 82 65 59 51 43 47 50 50 52 50 51 49 45 40 46 43 45 45 49 50 51 52 52 52 55 52 47 48 53 50 44 42 41 42 44 51 52 51 50 49 50
91 90 89 82 67 55 49 52 50 56 56 50 52 52 53 47 50 52 52 51 52 53 53 55 50 56 57 58 56 43 50 48 54 52 48 46 49 43 45 51 48 47 49
92 94 92 90 88 74 56 50 52 49 50 51 49 51 53 52 51 54 53 53 54 53 52 54 56 58 56 55 56 55 51 53 50 57 57 52 47 45 45 46 46 48 49
92 95 94 90 88 90 76 66 63 61 54 55 55 54 53 53 56 55 53 50 48 47 51 55 59 62 60 56 54 51 50 50 48 51 52 52 52 49 49 50 49 52 54
Wind_Speed
17 20 18 18 17 15 13 13 13 12 11 10 10 10 13 13 13 12 13 12 12 13 12 12 12 12 12 12 12 11 11 8 7 6 4 3 4 4 3 4 10 8 8
20 21 17 18 18 15 13 12 11 14 14 13 13 13 13 12 11 11 11 10 11 11 11 11 10 9 9 8 9 9 10 9 7 5 4 6 4 5 7 2 5 7 5
21 20 18 17 17 14 13 15 15 14 14 13 13 12 12 12 11 11 10 10 11 11 11 11 11 10 9 9 8 8 7 6 5 6 9 6 6 7 8 3 1 3 4
20 18 18 18 16 15 16 15 14 12 13 13 12 12 11 11 11 11 11 11 11 11 11 11 12 11 11 10 9 7 6 5 5 7 9 2 6 9 7 7 2 1 2
20 18 18 18 16 17 17 16 14 13 13 12 12 12 12 11 12 12 11 11 10 11 11 11 11 11 11 11 10 9 8 5 5 6 4 4 6 11 8 7 7 2 3
19 19 18 17 17 18 17 16 13 13 13 12 12 12 12 12 12 11 11 11 12 11 10 10 10 10 11 10 10 10 9 9 9 5 4 4 5 7 10 10 10 8 8
17 16 17 17 19 19 18 15 14 13 13 13 13 12 12 11 11 12 11 11 10 11 10 10 11 10 10 10 10 10 10 14 6 6 7 8 9 12 12 11 11 11 11
16 18 17 17 17 18 17 16 15 14 14 13 13 12 12 12 11 11 11 11 10 10 10 10 11 10 10 11 11 10 11 11 5 10 13 10 12 13 12 12 11 12 13
15 16 16 16 15 16 14 14 14 15 14 13 13 12 12 11 11 11 11 10 10 10 10 10 10 10 10 11 10 9 11 13 8 10 11 8 13 15 15 14 13 14 14
13 14 13 15 14 13 12 12 14 14 13 13 12 12 11 10 10 9 10 10 10 10 10 9 9 9 10 10 8 7 9 13 8 9 9 7 12 13 13 14 14 14 14
10 11 14 13 14 13 13 12 13 14 12 13 11 8 11 5 8 9 9 8 9 9 9 8 7 4 6 8 3 6 11 6 8 8 7 12 11 12 13 13 13 14 14
12 11 9 12 12 13 10 12 10 10 8 7 8 7 5 6 7 8 6 7 6 5 6 5 2 4 8 3 3 5 6 7 7 8 7 14 12 14 14 16 14 15 14
13 9 7 12 11 11 9 8 6 5 5 4 6 5 6 6 5 3 3 3 3 4 3 4 3 5 6 4 5 5 6 6 5 7 10 16 15 15 15 15 13 14 15
14 12 7 11 10 9 6 6 7 6 6 5 4 6 5 4 3 4 3 3 2 3 4 4 4 5 5 5 6 7 7 6 5 5 9 14 15 13 12 12 12 12 13
13 12 11 8 10 9 7 5 6 6 5 5 3 3 4 4 4 4 3 3 3 3 3 3 3 4 5 5 5 5 6 6 6 4 6 12 12 13 12 13 12 12 13
12 13 9 7 9 10 7 7 6 6 7 5 5 3 4 4 4 3 4 3 3 3 3 4 3 3 3 4 4 4 5 5 5 5 5 7 11 12 12 12 12 12 11
9 10 10 6 6 10 9 7 5 5 5 5 5 4 5 4 4 3 4 3 3 3 3 3 3 3 3 2 3 3 3 4 3 4 4 4 7 10 10 11 11 11 11
13 11 10 6 6 10 9 7 6 6 5 5 5 5 5 5 4 3 3 4 3 2 2 2 2 2 3 2 0 2 2 2 2 3 2 2 2 3 7 9 10 10 10
11 14 12 10 7 8 10 7 7 7 5 5 5 5 5 5 4 4 3 3 2 1 2 2 2 3 2 2 2 1 1 2 2 1 2 2 2 1 2 5 5 7 8
7 7 10 7 8 9 8 7 6 6 5 5 5 5 6 5 4 3 3 3 1 1 1 1 2 2 3 3 3 2 2 3 3 3 3 2 2 1 1 1 2 5 4
6 7 8 11 9 7 8 8 7 7 6 5 4 6 6 5 5 4 3 3 1 1 2 2 1 2 0 2 3 4 4 4 4 4 3 4 4 3 3 2 2 2 4
11 8 5 7 6 7 7 6 5 6 6 6 5 6 6 6 5 5 4 3 2 2 1 1 1 1 1 2 3 2 2 3 4 4 3 4 5 3 4 4 4 3 2
11 10 7 6 7 7 7 4 3 4 3 4 6 5 6 6 6 4 4 3 3 2 1 1 1 1 3 1 3 3 2 2 3 4 4 4 4 3 4 3 4 4 4
10 8 9 6 2 5 6 7 8 6 6 5 6 5 6 7 7 6 5 4 4 3 2 2 1 2 1 2 1 1 2 3 3 3 2 3 2 4 5 3 4 4 4
12 10 6 5 2 4 5 6 6 6 4 3 4 7 6 6 6 7 6 6 4 3 2 2 2 3 2 3 2 2 3 2 4 3 5 2 2 4 4 3 4 4 4
15 15 12 9 7 3 3 5 6 6 5 5 6 6 5 5 5 7 6 4 4 3 3 2 3 4 4 3 3 3 4 4 3 3 5 6 6 4 2 2 5 3 3
Wind_Direction
140 143 157 150 144 144 142 143 140 134 134 129 122 104 87 74 65 56 53 50 45 45 45 41 37 30 28 29 29 44 54 53 60 44 30 54 50 26 32 12 339 64 43
144 148 155 150 143 145 146 128 111 107 104 99 86 79 76 76 73 69 63 55 54 51 47 45 42 39 31 30 29 24 35 41 30 10 306 221 136 35 22 75 18 48 34
142 143 153 146 142 143 127 118 108 100 96 93 87 87 83 79 74 70 68 63 57 57 54 51 46 41 39 33 31 28 26 18 6 329 294 274 127 64 18 66 69 29 29
140 143 143 143 139 134 127 115 107 111 102 97 94 89 85 82 80 74 68 67 65 59 55 54 51 46 43 39 36 29 20 1 332 304 281 289 352 66 12 12 314 270 344
135 151 132 141 137 137 125 117 115 114 110 104 101 96 92 89 83 76 71 64 59 64 58 53 50 49 45 41 37 31 16 340 285 277 354 34 317 54 3 358 340 92 14
137 130 136 138 135 126 120 114 123 119 113 107 104 101 96 92 84 80 77 70 63 57 55 58 55 47 43 38 38 33 359 330 297 62 55 77 19 15 49 52 55 52 33
122 135 145 135 129 124 118 125 125 121 117 112 107 102 96 91 86 81 74 70 66 61 56 57 59 50 45 46 41 27 351 335 3 76 91 61 59 50 52 57 62 65 58
132 140 138 127 126 121 125 131 127 124 120 112 106 100 97 92 87 82 76 72 69 63 61 59 61 53 50 51 43 23 353 333 71 62 48 58 44 48 46 49 51 54 54
143 136 141 133 121 115 128 128 127 124 120 112 106 102 95 89 85 79 72 68 66 65 62 59 59 56 54 52 41 14 343 338 46 58 51 31 42 51 48 47 55 56 50
124 139 141 138 134 134 136 115 115 112 113 113 110 107 109 101 96 82 95 62 65 65 65 58 53 61 63 53 34 343 317 302 55 52 62 9 29 43 43 44 48 54 53
130 145 141 145 145 140 134 113 111 111 120 124 126 147 174 104 102 83 70 67 65 65 64 62 56 60 101 92 31 301 302 46 57 53 45 357 40 52 54 52 50 56 56
139 126 140 146 144 135 136 148 140 138 160 150 151 161 112 89 78 91 95 95 90 89 94 91 110 227 214 117 139 251 49 63 64 54 41 20 47 58 56 56 54 52 49
132 127 146 144 142 145 149 141 147 153 141 139 133 138 118 135 149 138 128 128 114 201 88 157 135 57 53 60 62 66 52 50 62 75 36 26 38 47 49 46 41 41 39
150 140 141 148 149 147 143 161 147 151 149 140 147 140 139 123 121 114 97 107 74 61 82 57 76 83 89 65 68 70 62 48 54 78 58 32 35 38 36 32 35 33 30
144 152 150 154 153 145 158 149 146 129 141 126 124 150 127 128 117 115 102 85 70 66 57 73 68 90 88 85 81 74 67 57 55 66 86 45 46 48 45 43 40 36 33
149 152 153 162 158 154 148 153 143 152 132 144 137 145 115 113 118 108 111 86 74 58 57 53 61 71 93 96 87 70 82 72 70 71 93 81 60 51 45 43 41 41 37
157 146 157 151 159 155 147 143 146 137 137 136 134 142 125 121 121 115 89 88 71 55 56 62 70 70 83 75 92 71 69 71 72 81 65 73 117 65 49 47 44 40 34
157 163 155 160 184 158 146 152 155 147 145 143 145 141 138 125 123 119 113 93 70 62 45 62 30 80 57 18 29 109 136 119 96 90 100 93 69 105 90 53 47 39 32
166 152 153 167 183 159 153 156 149 146 156 151 151 148 151 137 141 125 105 102 111 77 47 14 55 12 24 35 316 271 238 230 193 198 180 148 105 10 86 110 82 53 32
175 162 147 160 183 164 156 148 150 157 164 159 165 154 161 148 146 130 123 121 140 119 88 79 35 40 11 359 308 285 259 249 247 238 229 210 164 218 227 360 165 113 67
150 168 172 171 180 158 170 167 164 169 170 176 168 159 165 153 150 148 140 150 174 98 59 23 23 334 331 352 273 206 214 247 249 247 233 244 206 227 234 245 268 306 145
162 174 180 177 173 178 178 173 175 168 176 174 168 177 174 167 165 166 171 170 164 159 173 288 13 327 299 0 330 281 279 178 225 231 238 265 259 216 241 238 263 254 270
165 182 187 194 186 193 182 148 170 133 146 173 178 178 183 179 176 180 183 187 167 236 211 262 285 300 332 111 358 331 304 331 358 128 220 241 255 242 238 242 250 257 263
160 162 187 230 257 191 194 178 184 187 180 194 181 182 175 182 177 178 194 202 200 209 232 242 255 283 258 288 126 219 300 345 324 321 172 212 240 283 290 274 257 254 229
161 167 177 187 252 295 228 224 205 209 194 148 167 167 175 180 184 184 196 198 201 208 219 261 228 240 252 277 249 265 225 249 247 257 292 318 217 220 217 266 270 276 248
165 171 170 194 190 219 276 272 268 239 171 174 170 176 176 182 182 192 193 202 204 206 213 205 216 250 260 255 283 266 267 277 289 258 270 290 311 302 322 268 287 272 281